Dewpoint
51 51 50 49 49 49 49 49 48 49 48 47 46 45 45 47 49 52 50 52 50 47 47 47 46 44 43 41 40 40 38 37 37 33 28 28 27 28 33 32 37 37 35 36 37 34 30 45 48 42 43 46 47 49
50 50 51 50 49 49 49 49 49 48 48 48 48 48 45 48 49 52 50 51 53 48 46 47 47 48 46 44 42 41 39 38 39 35 36 36 32 37 36 34 42 36 40 36 39 37 40 45 47 48 48 48 49 50
50 50 50 50 50 50 49 49 49 49 49 48 48 48 45 49 50 51 51 51 52 49 48 46 44 46 48 47 45 42 41 42 40 40 38 37 34 40 36 37 38 37 43 41 41 39 44 45 46 50 52 50 52 54
50 50 50 50 49 50 50 49 48 49 49 48 48 48 48 49 50 51 51 52 52 49 45 42 44 43 44 44 46 45 43 40 39 38 36 35 34 37 33 33 33 33 42 40 41 42 42 44 47 51 53 54 54 54
50 50 50 50 49 49 49 50 49 49 49 49 49 48 48 49 50 51 54 53 53 49 43 43 44 44 43 43 43 44 44 42 39 38 37 35 36 35 34 33 31 35 36 40 37 40 41 42 48 53 52 52 54 54
49 49 49 49 49 49 48 49 49 49 49 49 48 48 49 49 50 52 47 52 53 53 47 41 42 42 41 40 41 41 42 40 39 38 37 37 38 35 33 33 34 34 40 42 41 49 45 48 52 54 53 53 55 56
50 49 49 49 49 49 49 49 49 49 49 49 48 48 49 49 49 49 45 49 52 54 47 41 38 40 41 40 40 41 41 40 39 38 37 37 37 37 34 33 35 35 49 49 50 48 46 48 47 52 54 55 55 54
49 49 49 49 49 48 49 49 49 49 49 48 48 48 49 50 51 49 52 53 52 49 48 41 38 38 40 35 37 42 40 37 37 36 38 36 36 36 34 36 38 47 50 49 49 50 49 49 53 53 54 54 55 54
48 49 49 49 48 49 49 49 49 49 48 49 49 49 50 50 48 49 54 54 53 48 44 40 35 35 44 36 39 39 37 34 37 34 35 36 34 34 37 38 42 46 47 49 51 52 52 52 52 51 51 52 52 51
48 49 48 48 48 48 49 49 49 49 48 49 48 47 44 49 53 54 50 47 46 46 45 40 38 37 43 41 37 35 37 33 32 34 36 34 32 39 44 46 46 47 50 51 50 48 50 51 52 52 51 51 51 52
48 48 48 48 48 48 48 48 49 48 48 48 46 45 49 54 50 44 43 42 42 38 39 40 40 37 42 41 40 40 40 42 37 38 38 38 38 42 46 49 51 52 52 54 53 53 52 51 50 49 49 52 54 53
48 48 48 48 48 49 48 48 49 46 48 49 49 50 50 47 44 40 39 40 39 37 40 39 40 38 40 47 44 45 41 41 36 44 41 36 41 45 48 51 52 52 53 55 55 53 54 53 53 52 52 52 54 55
47 48 48 48 48 48 49 49 49 48 51 51 48 46 44 43 39 37 34 38 37 41 43 40 37 39 42 47 47 45 42 40 45 40 39 40 45 48 51 51 51 51 51 52 53 53 53 53 54 54 53 54 53 53
48 48 48 48 48 49 49 49 49 48 49 45 41 37 39 37 38 37 36 36 42 41 41 39 36 38 46 43 43 41 43 44 39 37 38 43 47 49 49 48 47 47 47 47 47 48 48 49 51 53 53 54 54 54
48 48 48 48 49 49 49 49 51 50 47 42 43 36 38 40 40 39 39 38 41 43 43 42 41 39 40 37 33 40 40 38 40 41 45 49 49 47 47 47 47 47 47 47 47 48 49 50 51 51 52 54 55 56
48 48 47 49 49 49 50 50 49 49 47 44 43 42 43 40 40 39 39 40 43 42 45 45 42 39 35 36 39 40 39 39 43 46 47 47 47 46 47 48 48 49 49 49 49 50 50 51 51 51 52 52 53 54
47 45 49 49 50 50 49 48 46 45 42 40 43 45 44 42 41 41 41 43 45 44 43 44 39 40 43 40 40 40 43 45 47 47 45 44 46 46 47 49 49 49 49 49 49 49 50 51 51 51 49 50 51 52
45 48 50 50 49 49 48 48 45 43 41 43 42 42 42 43 41 42 44 46 46 44 45 43 44 40 40 37 39 42 46 46 44 44 44 45 46 47 48 48 49 48 49 49 49 50 51 51 50 50 49 50 50 52
47 49 50 49 49 46 44 44 45 41 43 44 43 43 41 42 44 45 45 44 45 49 48 46 41 39 39 42 41 44 45 42 39 40 44 45 46 47 48 48 48 48 48 50 51 51 52 52 51 51 52 53 52 53
50 50 50 51 50 46 42 42 45 43 41 40 40 38 38 39 40 46 46 43 41 41 39 36 38 40 40 42 45 43 40 41 38 43 45 46 47 47 46 46 46 47 47 49 50 47 50 50 51 50 50 52 52 52
47 47 50 48 47 47 45 42 41 43 40 38 38 40 42 45 45 45 44 46 45 45 44 44 44 43 43 43 42 42 44 44 44 45 46 47 47 46 45 45 45 46 46 45 45 43 43 44 46 50 50 51 52 51
47 50 47 49 43 44 41 42 40 40 39 37 37 41 39 38 40 41 43 44 46 47 47 48 46 46 48 47 49 50 49 48 47 47 47 47 46 47 47 47 45 43 43 43 43 42 42 44 45 48 51 49 46 45
48 46 45 45 41 38 33 41 36 36 31 34 40 39 39 39 41 43 44 46 47 47 47 47 48 50 50 50 49 48 48 49 50 48 48 48 48 45 45 45 46 44 42 42 43 42 42 41 43 44 45 46 44 42
47 41 36 35 34 32 37 35 37 39 39 38 38 36 38 40 42 43 43 45 46 47 48 48 48 47 46 46 45 46 47 47 47 47 46 47 45 44 43 42 42 43 43 42 42 42 40 40 39 40 40 39 39 41
32 35 36 31 38 35 36 36 37 37 36 37 36 36 37 40 39 41 42 44 45 47 47 48 48 46 44 43 42 42 42 46 44 43 43 44 43 41 40 41 40 40 39 39 39 39 39 39 38 38 37 38 37 35
31 36 32 36 36 36 36 35 36 36 36 35 36 39 39 37 37 38 42 45 45 45 46 47 47 42 38 39 38 38 40 41 42 39 39 39 38 38 36 35 36 37 39 40 40 39 39 38 37 36 35 35 35 36
31 33 36 37 37 37 35 36 36 35 34 35 39 39 38 35 37 42 45 47 45 45 44 45 39 34 33 34 35 35 36 40 40 40 37 37 37 38 38 36 37 38 39 39 39 38 37 37 36 35 34 34 35 35
34 35 32 34 35 36 34 33 34 34 35 37 37 35 37 38 38 42 43 45 45 38 37 36 36 36 35 36 36 36 35 35 36 37 36 35 36 36 38 39 39 37 39 38 38 37 36 36 36 36 35 34 34 35
33 35 34 34 35 36 36 36 36 38 39 38 36 34 36 40 41 41 39 38 38 37 36 36 36 37 37 37 37 37 36 35 35 34 33 33 33 34 36 37 37 37 37 37 36 36 37 36 35 34 34 34 35 35
32 36 35 36 36 37 39 40 39 41 41 38 37 36 36 36 38 39 38 37 37 36 36 36 37 36 36 36 35 34 36 36 36 35 33 33 34 35 35 35 36 36 37 37 34 34 35 34 34 34 33 33 32 32
38 38 38 39 39 41 42 42 39 37 36 35 36 35 34 35 37 39 39 39 38 38 37 37 37 37 37 37 36 34 32 35 36 36 36 35 35 35 35 35 35 35 36 36 34 33 32 32 32 32 31 32 31 29
40 38 38 38 40 41 40 38 38 38 38 37 37 39 38 37 36 38 40 39 39 38 39 38 38 38 39 39 39 37 35 35 36 36 37 36 36 36 36 34 35 36 35 34 34 33 32 32 30 29 29 29 29 29
39 38 38 37 37 37 37 38 38 38 38 38 38 38 38 37 36 41 42 41 40 39 38 38 39 40 39 38 38 37 36 37 37 35 35 35 35 35 36 35 36 35 34 33 33 33 33 33 31 31 31 30 30 28
Lifted_Index
8 9 9 10 10 11 11 11 12 12 13 13 13 14 14 14 13 11 10 9 9 8 8 8 7 6 6 5 5 5 4 4 4 4 5 5 4 4 4 3 2 2 2 2 1 1 0 -1 -2 -2 -2 -1 -1 -1
8 8 8 9 9 10 10 10 11 11 12 12 13 13 13 13 12 11 9 9 8 8 8 8 7 6 5 5 5 4 4 4 4 4 4 4 4 3 3 2 2 2 2 1 1 1 -0 -1 -2 -2 -2 -2 -2 -2
7 7 7 7 8 8 9 9 10 10 10 11 11 11 12 11 11 9 8 8 7 7 7 7 6 5 5 5 4 4 3 3 3 3 3 3 3 3 2 2 2 2 2 1 1 1 -0 -1 -2 -2 -2 -2 -2 -2
6 6 6 7 7 7 8 8 8 9 9 10 10 10 10 10 9 8 7 7 6 6 6 6 5 5 4 4 3 3 2 2 3 3 3 3 3 3 2 2 2 2 1 1 1 1 -0 -1 -2 -2 -2 -2 -2 -2
5 5 5 6 6 6 7 7 8 8 8 9 9 9 9 9 8 7 6 6 5 5 5 5 4 4 4 3 2 2 2 2 2 2 2 2 3 3 3 3 2 2 1 1 1 0 -1 -1 -2 -2 -2 -2 -2 -2
4 4 5 5 5 5 6 6 7 7 8 8 8 8 9 8 7 6 5 5 5 4 4 3 3 3 3 2 2 1 1 1 1 1 2 2 2 3 3 3 2 2 1 -0 -1 -1 -1 -1 -1 -2 -2 -2 -2 -2
4 4 4 4 4 4 5 5 6 7 7 8 8 8 8 7 6 5 4 4 4 3 3 3 2 2 2 2 1 1 0 0 1 1 1 1 2 2 3 3 3 2 0 -1 -1 -1 -1 -1 -1 -1 -2 -2 -2 -1
4 4 4 4 3 3 4 4 5 6 7 7 7 7 7 6 5 4 3 3 3 3 3 2 2 2 1 1 1 0 -0 0 1 1 1 1 2 2 2 2 2 1 -0 -1 -1 -1 -1 -1 -1 -1 -1 -1 -1 -1
3 3 4 3 3 3 3 4 4 5 6 6 7 6 5 4 4 3 3 2 2 2 2 2 2 1 0 0 -0 -0 -0 0 1 1 1 2 2 2 2 2 1 0 -0 -0 -0 -0 -0 -1 -1 -1 -1 -1 -0 0
3 3 3 3 3 3 4 4 4 5 5 5 5 4 4 3 2 2 2 2 2 2 2 2 2 1 0 -0 -0 -0 0 0 1 1 1 1 1 1 1 0 -0 -0 -0 -0 -0 0 -0 -0 -0 -0 -0 0 0 0
3 3 4 4 4 4 4 4 4 4 4 4 3 2 2 2 1 2 2 2 2 2 2 2 2 2 1 0 0 0 0 0 0 0 0 0 0 0 -0 -0 -1 -1 -1 -1 -0 -0 -0 -0 0 0 0 0 0 1
4 4 4 4 4 4 4 4 4 4 3 2 1 1 1 1 1 2 1 1 2 2 1 1 2 2 2 1 0 0 -0 -0 -0 -0 -0 -0 -0 -0 -0 -1 -1 -1 -1 -1 -1 -0 -0 -0 -0 -0 0 0 1 1
4 4 4 4 4 4 4 4 4 3 2 1 1 0 1 1 1 1 1 1 1 1 1 1 1 2 1 1 0 0 -0 -0 -0 -0 -0 -0 -0 -0 -0 -0 0 0 0 0 0 0 1 1 0 0 0 1 1 1
4 4 4 4 4 4 4 4 3 3 2 1 1 1 1 1 1 1 1 0 0 0 0 0 1 1 1 0 0 0 0 -0 -0 -0 -0 -0 -0 0 0 0 1 1 1 1 1 1 2 2 1 1 1 1 1 0
4 4 4 4 4 4 4 4 3 3 2 1 1 1 1 1 1 1 0 0 0 0 0 0 0 0 0 0 0 0 -0 -0 -0 -0 -0 0 0 0 0 1 1 1 1 1 2 2 2 1 1 1 1 1 1 1
4 4 4 4 4 4 4 4 3 3 3 1 1 0 0 0 -0 -0 0 0 0 0 -0 0 0 0 0 0 0 0 -0 -0 0 0 0 0 0 0 1 1 1 1 1 2 2 1 1 1 1 1 1 1 1 1
5 5 5 5 5 4 4 4 4 4 3 1 0 0 0 -0 -0 -0 -0 -0 -0 -0 -0 0 0 0 0 0 0 0 0 0 0 0 0 1 1 1 1 1 2 2 2 2 1 1 1 1 2 1 1 1 2 2
5 5 5 5 4 4 4 4 4 3 2 1 0 0 0 -0 -0 -0 -0 -0 -0 -0 -0 0 0 0 0 1 1 1 1 1 1 1 1 1 1 2 2 2 2 2 2 2 2 2 2 2 2 2 2 2 2 2
5 5 4 4 4 3 3 3 3 2 2 1 1 0 0 0 0 0 0 0 0 0 0 1 1 1 1 1 2 2 2 2 2 2 2 2 2 2 3 3 3 3 2 2 2 2 2 2 2 2 2 2 2 2
4 4 4 3 3 2 2 2 2 2 1 1 0 0 0 1 1 0 0 1 0 0 1 1 2 2 2 2 2 2 2 3 3 2 2 2 2 3 3 3 4 3 3 3 2 2 2 2 2 2 2 2 2 2
4 3 3 3 2 2 1 1 1 1 1 1 1 0 1 1 1 1 1 1 0 0 0 1 1 1 1 1 1 1 2 2 2 2 2 3 3 4 4 4 5 5 5 4 4 3 3 3 3 2 2 2 2 3
3 3 3 3 2 1 1 1 1 2 1 1 1 1 1 1 1 1 1 1 1 0 0 0 0 0 0 0 1 1 1 2 2 2 3 4 4 4 5 5 6 6 6 6 6 5 5 4 3 2 1 1 2 2
4 3 3 2 2 1 1 1 2 1 1 1 1 1 1 1 1 1 1 1 1 1 0 1 1 1 1 1 1 2 2 3 3 3 4 4 5 5 6 6 7 7 8 8 7 7 6 4 3 2 2 2 2 2
3 3 2 2 2 2 2 1 1 1 1 1 1 1 2 2 2 1 2 2 1 1 1 1 2 2 2 2 2 3 3 4 4 4 4 4 5 5 6 6 7 8 8 8 7 7 6 6 5 4 3 3 3 3
3 3 2 2 2 2 2 2 1 2 2 2 2 2 2 2 2 2 2 2 2 2 2 2 2 3 3 3 3 4 4 4 4 4 4 4 5 5 6 6 7 8 8 8 8 7 7 7 7 6 5 5 5 5
3 3 3 3 2 2 2 2 2 2 2 3 3 3 3 3 2 2 2 2 3 3 3 2 3 4 4 5 5 5 5 5 4 4 5 5 6 6 6 6 7 8 8 8 8 8 8 9 9 9 8 8 8 8
3 3 3 3 3 3 3 3 3 3 3 3 3 3 3 3 2 2 3 3 4 4 4 4 4 5 6 6 6 7 6 6 5 5 6 6 7 7 7 7 7 8 8 8 9 9 10 10 11 11 11 11 10 10
4 4 3 3 3 3 3 3 3 3 3 3 3 3 3 3 3 3 4 4 5 5 5 6 6 6 6 7 7 7 7 7 7 7 7 7 7 8 8 8 8 8 8 9 10 10 11 11 12 12 12 12 12 12
4 4 4 3 3 3 3 3 3 3 3 3 3 3 3 4 4 5 5 5 6 6 6 6 7 7 7 7 7 8 8 8 8 8 8 8 8 8 8 8 8 8 9 9 10 10 11 11 12 12 12 12 12 12
4 3 3 3 3 3 3 4 4 4 4 4 4 4 5 5 5 6 6 6 6 6 6 6 6 7 7 7 7 8 8 8 9 9 9 9 9 9 9 9 9 9 9 9 9 10 11 11 12 12 12 12 12 13
3 3 3 3 3 4 4 5 5 5 5 5 5 5 5 6 6 6 6 6 6 6 6 6 6 7 7 7 7 8 8 8 9 9 9 9 10 10 10 10 10 9 9 9 9 10 10 11 11 11 12 12 12 12
3 3 3 3 3 4 5 5 5 5 5 5 5 5 5 6 6 6 6 7 7 7 7 7 7 7 8 8 8 8 8 9 9 9 9 9 9 10 10 10 10 10 10 10 10 10 10 10 11 11 11 12 12 12
3 3 4 4 4 4 5 5 5 5 5 5 5 5 5 6 6 6 6 7 7 7 7 7 7 8 8 8 8 8 8 9 9 9 9 9 9 9 9 10 10 10 11 10 10 10 10 10 11 11 11 11 12 12